Terminal Aerodrome Forecast
Issued by NWS

Current Version | Previous Version | Graphics & Text | Print | Product List | Glossary On
Versions: 1 2 3 4 5 6 7 8 9 10 11 12 13 14 15 16 17 18 19 20 21 22 23 24 25 26 27 28 29 30 31 32 33
000
FTUS41 KRNK 281220 AAA
TAFLWB
TAF AMD
KLWB 281220Z 2812/2912 00000KT P6SM SCT070
      TEMPO 2812/2814 3SM BR
     FM281600 20006KT P6SM BKN050
     FM290800 00000KT 1/4SM FG OVC001=

USA.gov is the U.S. government's official web portal to all federal, state and local government web resources and services.